カタログに戻る

DELTA 1 DEB

運用中LEO
NORAD 10719·DEBRIS·🇺🇸 United States

打ち上げ Jul 29, 1976 から Vandenberg Space Force Base

Loading…

次のパス (今後24時間)

TLE

最新Source: Space-Track

元期: Sep 14, 2026, 23:32 UTC

1 10719U 76077AQ  26257.98097456  .00000104  00000-0  16188-2 0  9996
2 10719 101.8881 258.6271 0231964 295.4485  89.2433 12.01502818192133

AllMySatでDELTA 1 DEBをリアルタイム追跡

Download on the App Store